Location: Carrer del Canonge
(41.4901°N, 2.2931°E)
Time: 14:50:42
(UTC+00:00)

DELTA 2 R/B (1) - Pass Details

Date: 18 September 2020
Orbit: 790 x 803 km, 39.6° (Epoch: 28 October)

Event Time Altitude Azimuth Distance (km) Brightness Sun altitude
Rises 19:35:02 0° 278° (W) 3,278 8.3 -19.3°
Reaches altitude 10° 19:37:37 10° 272° (W) 2,348 7.1 -19.7°
Maximum altitude 19:42:49 43° 202° (SSW) 1,093 4.2 -20.6°
Enters shadow 19:44:40 32° 158° (SSE) 1,317 4.3 -21.0°
